Regional Weather Roundup
Issued by NWS

Home | Current Version | Previous Version | Text Only | Print | Product List | Glossary Off
Versions: 1 2 3 4 5 6 7 8 9 10 11 12 13 14 15 16 17 18 19 20 21 22 23 24 25 26 27 28 29 30 31 32 33 34 35 36 37 38 39 40 41 42 43 44 45 46 47 48 49 50

000
ASUS43 KMKX 211310
RWRWI

WISCONSIN REGIONAL WEATHER ROUNDUP
NATIONAL WEATHER SERVICE MILWAUKEE/SULLIVAN WI
700 AM CST WED FEB 21 2018

NOTE: "FAIR" INDICATES FEW OR NO CLOUDS BELOW 12,000 FEET WITH NO
SIGNIFICANT WEATHER AND/OR OBSTRUCTIONS TO VISIBILITY.

WIZ001-002-006>008-014>016-023>028-211400-
NORTHWEST WISCONSIN

CITY           SKY/WX    TMP DP  RH WIND       PRES   REMARKS
SUPERIOR ARPT  FAIR      -2  -6  82 SW7       30.48R WCI -16
ASHLAND        FAIR       0  -5  79 SW12      30.47R WCI -17
HAYWARD        FAIR      -5  -8  87 SW5       30.45R WCI -16
SIREN          FAIR      -2  -6  82 W6        30.49R WCI -14
CUMBERLAND     FAIR      -4  -8  84 W3        30.47R
RICE LAKE      FAIR      -5  -8  87 CALM      30.50R
CHETEK         FAIR      -3  -6  87 SW3       30.50R
LADYSMITH      FAIR      -3  -6  87 SW3       30.49R
EAU CLAIRE     FAIR       1  -2  87 SW5       30.53R WCI  -9
MENOMONIE      FAIR       4  -1  79 SW7       30.54R WCI  -8
NEW RICHMOND   FAIR      -3  -7  82 SW3       30.51R
OSCEOLA        FAIR      -1  -5  81 SW6       30.55R WCI -12
$$

WIZ003>005-009-010-017-018-211400-
NORTH CENTRAL WISCONSIN

CITY           SKY/WX    TMP DP  RH WIND       PRES   REMARKS
MANITOWISH WTR FAIR      -2  -4  91 CALM      30.38R
ARBOR VITAE    FAIR       4   0  85 W3        30.39R
WOODRUFF       FAIR       4   0  85 W3        30.39R
RHINELANDER    FAIR       2  -1  88 W6        30.39R WCI  -9
EAGLE RIVER    FAIR       3  -1  81 W6        30.37R WCI  -8
LAND O LAKES   FLURRIES   5   2  87 W5        30.38R WCI  -4
PHILLIPS       FAIR      -1  -3  89 CALM      30.41R
TOMAHAWK       FAIR      -1  -4  86 CALM      30.42R
MEDFORD        FAIR       1  -2  85 W5        30.43R WCI  -8
MERRILL        FAIR       5   1  84 W3        30.44R
$$

WIZ029-030-035-036-043>047-211400-
CENTRAL WISCONSIN

CITY           SKY/WX    TMP DP  RH WIND       PRES   REMARKS
WAUSAU         FAIR       6   2  83 W10       30.44R WCI  -9
MOSINEE        PTCLDY     7   3  85 W10G17    30.44R WCI  -8
MARSHFIELD     FAIR       4   0  83 NW9       30.45R WCI -10
STEVENS POINT  FAIR       7   3  84 W3        30.47R
WAUPACA        FAIR      16   9  73 W9        30.48R WCI   4
WAUTOMA        FAIR      13   9  84 W7        30.49R WCI   3
WISC RAPIDS    FAIR       9   3  77 NW7       30.49R WCI  -2
CAMP DOUGLAS   PTCLDY    10   5  79 NW8       30.51R WCI  -1
$$

WIZ011>013-019>022-031-037>040-048>050-211400-
NORTHEAST WISCONSIN

CITY           SKY/WX    TMP DP  RH WIND       PRES   REMARKS
ANTIGO         FAIR       6   2  86 NW7       30.39R WCI  -6
SHAWANO        FAIR      16   9  73 W5        30.45R WCI   9
OCONTO         FAIR      17  10  74 NW3       30.44R
STURGEON BAY   FAIR      18  13  80 W10       30.43R WCI   6
GREEN BAY      FAIR      18  10  71 NW10      30.45R WCI   6
MANITOWOC      FAIR      20  13  74 NW12      30.45R WCI   8
APPLETON       PTCLDY    16   9  73 NW13      30.43R WCI   2
CLINTONVILLE   FAIR      15   8  75 W6        30.46R WCI   6
OSHKOSH        FAIR      17  11  77 NW13      30.46R WCI   4
$$

WIZ032>034-041-042-053>061-211400-
SOUTHWEST WISCONSIN

CITY           SKY/WX    TMP DP  RH WIND       PRES   REMARKS
LA CROSSE      FAIR      11   5  77 NW9       30.56R WCI  -2
SPARTA         FAIR      10   6  84 NW6       30.55R WCI   0
VIROQUA        FAIR      10   7  91 NW6       30.49R WCI   0
BOSCOBEL       FAIR      16   8  71 NW7       30.56R WCI   6
PRAIRIE DU CHI FAIR      14   5  69 NW10      30.57R WCI   1
PLATTEVILLE    FAIR      17  14  88 NW8       30.50R WCI   6
$$

WIZ056-057-062-063-064-067-068-211400-
SOUTH CENTRAL WISCONSIN

CITY           SKY/WX    TMP DP  RH WIND       PRES   REMARKS
REEDSBURG      FAIR      15  11  83 NW8       30.49R WCI   4
BARABOO/DELLS  MOCLDY    15  10  81 NW8       30.48R WCI   4
LONE ROCK      FAIR      17  10  74 NW9       30.53R WCI   6
MINERAL POINT  FAIR      19  18  93 NW9       30.47R WCI   9
MADISON        MOCLDY    18  11  74 N8        30.47R WCI   8
MIDDLETON      FAIR      21  15  78 NW9       30.47R WCI  10
WATERTOWN      FAIR      19  14  79 N9        30.46R WCI   9
MONROE         MOCLDY    21  18  86 NW8       30.45R WCI  12
JANESVILLE     CLOUDY    23  18  80 N7        30.46R WCI  15
$$

WIZ051-052-058>065-066-070>072-211400-
SOUTHEAST WISCONSIN

CITY           SKY/WX    TMP DP  RH WIND       PRES   REMARKS
MILWAUKEE      MOCLDY    24  15  68 NW14      30.44R WCI  12
WAUKESHA       CLEAR     19  12  73 NW13      30.45R WCI   7
MILWAUKEE/TIMM FAIR      23  14  68 NW8       30.46R WCI  14
RACINE         FAIR      24  14  65 NW13G25   30.45R WCI  12
BURLINGTON     FAIR      22  15  73 NW7       30.45R WCI  14
KENOSHA        FAIR      25  18  74 NW12G20   30.43R WCI  14
FOND DU LAC    FAIR      19   9  65 NW12      30.46R WCI   7
SHEBOYGAN      FAIR      20  14  77 NW8       30.45R WCI  10
WEST BEND      FAIR      21  14  73 NW13      30.44R WCI   9
JUNEAU         FAIR      18  13  79 NW8       30.47R WCI   8
$$

LSZ147-162-211400-
LAKE SUPERIOR

STATION/POSITION TIME  TEMP    WIND        PRES    WAVE
                       AIR SEA DIR/SP/G            HT/PER
                 (UTC) (F)     (DEG/KT/KT) (MB)    (FT/S)
DEVILS ISLAND    1200   13     270/ 12/ 15 1030.8R
SAXON HARBOR     1240    5     200/  6/ 11 1031.2R
$$

LMZ867-665-643>646-211400-
LAKE MICHIGAN

STATION/POSITION TIME  TEMP    WIND        PRES    WAVE
                       AIR SEA DIR/SP/G            HT/PER
                 (UTC) (F)     (DEG/KT/KT) (MB)    (FT/S)
NORTHPORT PIER   1240   19                 1029.8R
KEWAUNEE LAKESHO 1248   20     310/  8/ 13 1029.6R
SHEBOYGAN LAKESH 1300   22     300/ 13/ 15 1032.0R
PORT WASHINGTON  1240   22     310/  8/ 14 1031.8R
MILWAUKEE LAKESH 1250   23     310/ 14/ 17   N/A
KENOSHA   LAKESH 1200   26     320/ 13/ 17 1029.1
$$

TC  - TEMPERATURE IN CELSIUS
VSB - VISIBILITY IN STATUTE MILES
WCI - WIND CHILL INDEX
HX  - HEAT INDEX




USA.gov is the U.S. government's official web portal to all federal, state and local government web resources and services.